Flag for China Weather past 2 weeks in Nanjing, Jiangsu, China

Now
81 °F

Sunny.


Feels Like: 81 °F
Forecast: 58 / 82 °F
Wind: 3 mph from North

Location: Nanjing

Current Time: Oct 25, 2014 at 12:48:16 PM

Latest Report: Oct 25, 2014 at 12:00 PM


Visibility: 10 mi

Pressure: 30.04 "Hg

Humidity: 45%

Dew point: 57 °F

Location of NanjingLocation

Historic Weather in Nanjing — Graph

°F

Nanjing temperature yesterday

Maximum temperature yesterday: 81 °F (at 2:00 PM)
Minimum temperature yesterday: 54 °F (at 4:00 AM)
Average temperature yesterday: 65 °F

Past Weeks' High & Low Weather Summary

 TemperatureHumidityPressure
High86 °F (Oct 20, 1:00 PM)100% (Oct 11, 5:00 AM)30.27 "Hg (Oct 11, 5:00 AM)
Low46 °F (Oct 15, 2:00 AM)28% (Oct 24, 3:00 PM)29.86 "Hg (Oct 20, 2:00 PM)
Average65 °F75%30.10 "Hg
* Reported Oct 10 11:00 AM — Oct 25 11:00 AM, Nanjing, Weather by CustomWeather, © 2014

Note: Actual official high and low records may vary slightly from our data, if they occured in-between our weather recording intervals... More about our weather records

Advertising

Nanjing weather history for previous 24 hours

 ConditionsComfort  
Time TempWeatherWind HumidityBarometerVisibility
11:00 AM
Oct 25
77 °FClear.1 mph54%30.07 "Hg5 mi
10:00 AM73 °FClear.1 mph61%30.07 "Hg4 mi
9:00 AM68 °FClear.1 mph69%30.09 "Hg4 mi
8:00 AM63 °FFog.1 mph88%30.07 "Hg2 mi
7:00 AM54 °FFog.1 mph100%30.04 "Hg1 mi
6:00 AM54 °FFog.No wind100%30.04 "Hg1 mi
5:00 AM55 °FFog.No wind100%30.04 "Hg1 mi
4:00 AM55 °FFog.3 mph94%30.01 "Hg1 mi
3:00 AM55 °FFog.1 mph100%30.04 "Hg1 mi
2:00 AM57 °FFog.1 mph94%30.04 "Hg1 mi
1:00 AM57 °FFog.1 mph100%30.04 "Hg1 mi
12:00 AM57 °FFog.3 mph94%30.07 "Hg1 mi
11:00 PM
Oct 24
59 °FFog.1 mph88%30.07 "Hg2 mi
10:00 PM63 °FFog.3 mph77%30.07 "Hg2 mi
9:00 PM64 °FHaze.1 mph68%30.04 "Hg3 mi
8:00 PM64 °FClear.3 mph73%30.04 "Hg4 mi
7:00 PM66 °FClear.6 mph64%30.04 "Hg10 mi
6:00 PM64 °FClear.1 mph68%30.01 "Hg10 mi
5:00 PM75 °FPassing clouds.3 mph36%30.01 "HgN/A
4:00 PM79 °FPassing clouds.6 mph28%30.01 "HgN/A
3:00 PM81 °FSunny.3 mph28%30.01 "Hg10 mi
2:00 PM81 °FPassing clouds.6 mph30%30.01 "HgN/A
1:00 PM79 °FPassing clouds.6 mph37%30.04 "HgN/A
12:00 PM77 °FSunny.3 mph47%30.07 "Hg10 mi
Weather by CustomWeather, © 2014

See weather overviewHow to use our weather pages